Montello, WI (53949)

1:35 PM CDT on October 21, 2014 (GMT -0500)
Marquette County | Change Station
CLOSE
Current Station
Personal Weather Station
Location: Montello, WI
Elevation: 797 ft
Nearby Weather Stations

Elev 797 ft 43.79 °N, 89.34 °W | Updated 1 minute ago

Overcast
Overcast
46.0 °F
Feels Like 46 °F
N
0.0
Wind Variable Wind from ESE
Gusts 8.0 mph

Today
High -- | Low -- °F
--% Chance of Precip.
Yesterday
High -- | Low -- °F
Precip. -- in
7:19 AM 6:03 PM
Waning Crescent, 5% visible
Pressure 30.26 in
Visibility 10.0 miles
Clouds Overcast 100 ft
Windchill 46 °F
Dew Point 39 °F
Humidity 77%
Rainfall -999.00 in
Snow Depth Not available.
UV 1 out of 12
Pollen 1.50 out of 12
Air Quality Not available.
Flu Activity Sporadic
METAR KY50 211756Z AUTO VRB05KT 10SM OVC001 08/02 A3025 RMK AO2 TSNO 50005 T00830016 10083 20022 OVC V BKN SLP245

More Conditions Fewer Conditions

Pressure 30.26 in
Visibility 10.0 miles
Clouds Overcast 100 ft
Windchill 46 °F
Dew Point 39 °F
Humidity 77%
Rainfall -999.00 in
Snow Depth Not available.
UV 1 out of 12
Pollen 1.50 out of 12
Air Quality Not available.
Flu Activity Sporadic
METAR KY50 211756Z AUTO VRB05KT 10SM OVC001 08/02 A3025 RMK AO2 TSNO 50005 T00830016 10083 20022 OVC V BKN SLP245

More Conditions Fewer Conditions

10-Day Weather Forecast

Almanac

Astronomy

Oct. 21, 2014 Rise Set
Actual Time 7:19 AM CDT 6:03 PM CDT
Civil Twilight 6:49 AM CDT 6:33 PM CDT
Nautical Twilight 6:16 AM CDT 7:06 PM CDT
Astronomical Twilight 5:43 AM CDT 7:39 PM CDT
Moon 4:59 AM CDT 5:01 PM CDT
Length of Visible Light 11h 43m
Length of Day
10h 44m
Tomorrow will be 2m 50s shorter.
Waning Crescent, 5% of the Moon is Illuminated
Today
Waning Crescent
Oct 23
New
Oct 30
First Quarter
Nov 6
Full
Nov 14
Last Quarter

Today's Extremes

State Highs State Lows

Community

WunderPhotos

Upload Photos

1,763,738 photos uploaded!

Nearby

Snow Depth

Station Depth Elevation
No new snow has been reported.

Earthquake Activity

City Distance Mag. Time & Date
No recent earthquake activity has been reported nearby.
Minimum magnitude displayed is 2.5.

Coastal Water Temperatures

Place Temperature
No Stations Reporting

Nearby Weather Stations